Location: Unspecified
(47.9110°N, 14.3980°E)
Time: 17:48:13
(UTC+00:00)

Cosmos 1544 - Pass Details

Date: 06 August 2020
Orbit: 471 x 491 km, 82.5° (Epoch: 24 September)

Event Time Altitude Azimuth Distance (km) Brightness Sun altitude
Exits shadow 23:10:32 37° 34° (NE) 775 4.4 -25.7°
Drops below altitude 10° 23:12:56 10° 17° (NNE) 1,681 6.7 -25.7°
Sets 23:15:05 0° 13° (NNE) 2,570 8.0 -25.7°
